TimeCST,TemperatureF,Dew PointF,Humidity,Sea Level PressureIn,VisibilityMPH,Wind Direction,Wind SpeedMPH,Gust SpeedMPH,PrecipitationIn,Events,Conditions,WindDirDegrees,DateUTC
12:56 AM,8.1,1.0,73,30.01,10.0,NW,9.2,-,N/A,,Scattered Clouds,310,2013-01-31 06:56:00
1:56 AM,7.0,1.0,77,30.02,10.0,NW,11.5,-,N/A,,Clear,310,2013-01-31 07:56:00
2:56 AM,7.0,-0.0,73,30.04,10.0,NW,12.7,-,N/A,,Clear,310,2013-01-31 08:56:00
3:56 AM,6.1,-0.0,76,30.06,10.0,NW,12.7,-,N/A,,Scattered Clouds,310,2013-01-31 09:56:00
4:56 AM,6.1,-2.0,69,30.08,10.0,NW,15.0,-,N/A,,Partly Cloudy,320,2013-01-31 10:56:00
5:56 AM,5.0,-5.1,63,30.10,10.0,NW,15.0,-,N/A,,Scattered Clouds,320,2013-01-31 11:56:00
6:56 AM,3.0,-7.1,63,30.15,10.0,NW,19.6,-,N/A,,Mostly Cloudy,320,2013-01-31 12:56:00
7:56 AM,1.9,-7.1,66,30.18,10.0,NW,18.4,23.0,N/A,,Mostly Cloudy,320,2013-01-31 13:56:00
8:56 AM,3.0,-7.1,63,30.22,10.0,NW,29.9,41.4,N/A,,Mostly Cloudy,320,2013-01-31 14:56:00
9:56 AM,3.9,-9.0,55,30.29,10.0,NW,29.9,42.6,0.00,,Scattered Clouds,310,2013-01-31 15:56:00
10:04 AM,3.2,-5.8,66,30.19,2.5,NNW,25.3,39.1,0.00,Snow,Light Snow,330,2013-01-31 16:04:00
10:18 AM,3.2,-7.6,61,30.19,9.0,NW,27.6,43.7,0.00,,Mostly Cloudy,320,2013-01-31 16:18:00
10:56 AM,3.9,-9.0,55,30.33,10.0,NW,27.6,35.7,0.00,,Overcast,320,2013-01-31 16:56:00
11:56 AM,6.1,-7.1,55,30.35,6.0,NW,24.2,33.4,N/A,Snow,Blowing Snow,320,2013-01-31 17:56:00
12:56 PM,7.0,-8.0,51,30.35,10.0,NW,25.3,33.4,N/A,,Mostly Cloudy,320,2013-01-31 18:56:00
2:11 PM,6.8,-9.4,48,30.25,10.0,NW,20.7,32.2,N/A,,Scattered Clouds,320,2013-01-31 20:11:00
2:56 PM,7.0,-8.0,51,30.38,10.0,NW,18.4,28.8,N/A,,Clear,320,2013-01-31 20:56:00
3:56 PM,6.1,-9.0,50,30.39,10.0,NW,17.3,26.5,N/A,,Clear,320,2013-01-31 21:56:00
4:56 PM,5.0,-9.0,52,30.40,10.0,NW,15.0,24.2,N/A,,Clear,320,2013-01-31 22:56:00
5:56 PM,3.0,-9.0,57,30.42,10.0,NW,11.5,-,N/A,,Clear,310,2013-01-31 23:56:00
6:56 PM,1.9,-9.0,60,30.44,10.0,NW,6.9,-,N/A,,Clear,320,2013-02-01 00:56:00
7:56 PM,1.0,-8.0,66,30.45,10.0,NNW,6.9,-,N/A,,Clear,330,2013-02-01 01:56:00
8:56 PM,-0.0,-9.0,66,30.47,10.0,WNW,3.5,-,N/A,,Clear,300,2013-02-01 02:56:00
9:56 PM,-0.9,-9.0,69,30.47,10.0,NW,4.6,-,N/A,,Clear,320,2013-02-01 03:56:00
10:56 PM,-0.9,-8.0,72,30.48,10.0,WSW,5.8,-,N/A,,Overcast,250,2013-02-01 04:56:00
11:56 PM,-0.0,-8.0,69,30.48,10.0,West,5.8,-,N/A,,Mostly Cloudy,270,2013-02-01 05:56:00